TimeMST,TemperatureF,Dew PointF,Humidity,Sea Level PressureIn,VisibilityMPH,Wind Direction,Wind SpeedMPH,Gust SpeedMPH,PrecipitationIn,Events,Conditions,WindDirDegrees,DateUTC
12:55 AM,34.3,34.3,100,30.41,10.0,SE,11.5,-,N/A,,Overcast,130,2012-11-13 07:55:00
1:55 AM,34.7,34.7,100,30.41,10.0,ESE,13.8,-,0.00,,Overcast,120,2012-11-13 08:55:00
2:55 AM,34.5,34.5,100,30.42,10.0,ESE,9.2,-,0.00,,Overcast,120,2012-11-13 09:55:00
3:01 AM,33.8,33.8,100,30.42,8.0,ESE,9.2,-,N/A,,Overcast,120,2012-11-13 10:01:00
3:03 AM,33.8,33.8,100,30.43,8.0,ESE,9.2,-,N/A,,Overcast,120,2012-11-13 10:03:00
3:55 AM,34.3,34.3,100,30.42,10.0,SE,10.4,-,0.00,,Overcast,130,2012-11-13 10:55:00
4:18 AM,33.8,33.8,100,30.41,4.0,ESE,12.7,-,N/A,Snow,Light Snow,120,2012-11-13 11:18:00
4:21 AM,33.8,33.8,100,30.41,3.0,ESE,12.7,-,N/A,Snow,Light Snow,120,2012-11-13 11:21:00
4:23 AM,33.8,33.8,100,30.42,2.5,ESE,12.7,-,N/A,Snow,Light Snow,120,2012-11-13 11:23:00
4:29 AM,33.8,33.8,100,30.42,3.0,SE,11.5,-,N/A,Snow,Light Snow,130,2012-11-13 11:29:00
4:55 AM,33.3,33.3,100,30.41,5.0,ESE,11.5,-,0.01,Snow,Light Snow,120,2012-11-13 11:55:00
5:55 AM,33.1,33.1,100,30.41,10.0,ESE,10.4,-,0.01,,Overcast,110,2012-11-13 12:55:00
5:59 AM,33.8,33.8,100,30.41,10.0,ESE,10.4,-,N/A,,Overcast,110,2012-11-13 12:59:00
6:18 AM,33.8,33.8,100,30.40,10.0,ESE,12.7,-,N/A,,Overcast,110,2012-11-13 13:18:00
6:55 AM,33.3,33.3,100,30.40,10.0,East,12.7,-,0.02,Rain,Light Rain,100,2012-11-13 13:55:00
7:55 AM,33.3,33.3,100,30.40,10.0,ESE,15.0,-,0.00,,Overcast,110,2012-11-13 14:55:00
8:55 AM,34.2,34.2,100,30.41,10.0,East,11.5,-,N/A,,Overcast,100,2012-11-13 15:55:00
9:00 AM,33.8,33.8,100,30.41,10.0,ESE,10.4,-,N/A,,Overcast,110,2012-11-13 16:00:00
9:31 AM,35.6,35.6,100,30.41,10.0,ESE,13.8,-,N/A,,Overcast,110,2012-11-13 16:31:00
9:55 AM,35.8,35.8,100,30.40,10.0,ESE,12.7,-,N/A,,Overcast,120,2012-11-13 16:55:00
10:34 AM,37.4,37.4,100,30.40,10.0,ESE,13.8,-,N/A,,Overcast,110,2012-11-13 17:34:00
10:55 AM,38.7,38.7,100,30.39,10.0,ESE,15.0,-,N/A,,Overcast,120,2012-11-13 17:55:00
11:23 AM,41.0,41.0,100,30.38,10.0,ESE,19.6,-,N/A,,Overcast,110,2012-11-13 18:23:00
12:55 PM,43.9,35.2,72,30.33,10.0,ESE,16.1,-,N/A,,Overcast,110,2012-11-13 19:55:00
1:55 PM,46.4,34.5,63,30.29,10.0,ESE,16.1,-,N/A,,Overcast,110,2012-11-13 20:55:00
2:58 PM,47.7,34.0,59,30.23,10.0,East,13.8,-,N/A,,Overcast,100,2012-11-13 21:58:00
3:48 PM,48.2,32.0,54,30.23,10.0,ESE,11.5,-,N/A,,Mostly Cloudy,120,2012-11-13 22:48:00
3:58 PM,47.8,33.3,57,30.23,10.0,ESE,15.0,-,N/A,,Mostly Cloudy,120,2012-11-13 22:58:00
4:58 PM,45.9,33.6,62,30.22,10.0,ESE,10.4,-,N/A,,Mostly Cloudy,110,2012-11-13 23:58:00
5:28 PM,42.8,32.0,66,30.22,10.0,ESE,15.0,-,N/A,,Mostly Cloudy,110,2012-11-14 00:28:00
5:43 PM,42.8,32.0,66,30.22,10.0,ESE,10.4,-,N/A,,Scattered Clouds,110,2012-11-14 00:43:00
5:58 PM,42.6,33.6,70,30.22,10.0,ESE,10.4,-,N/A,,Partly Cloudy,110,2012-11-14 00:58:00
6:33 PM,41.0,35.6,81,30.22,10.0,ESE,12.7,-,N/A,,Mostly Cloudy,110,2012-11-14 01:33:00
6:58 PM,39.6,35.4,85,30.22,10.0,ESE,12.7,-,N/A,,Mostly Cloudy,120,2012-11-14 01:58:00
7:08 PM,39.2,35.6,87,30.21,10.0,ESE,11.5,-,N/A,,Scattered Clouds,120,2012-11-14 02:08:00
7:58 PM,39.0,35.8,88,30.20,10.0,ESE,12.7,-,N/A,,Partly Cloudy,110,2012-11-14 02:58:00
8:58 PM,39.2,34.9,84,30.21,10.0,ESE,13.8,-,N/A,,Overcast,110,2012-11-14 03:58:00
9:58 PM,40.1,34.3,80,30.21,10.0,ESE,15.0,-,N/A,,Overcast,110,2012-11-14 04:58:00
10:23 PM,39.2,35.6,87,30.20,10.0,East,15.0,-,N/A,,Mostly Cloudy,100,2012-11-14 05:23:00
10:58 PM,39.7,35.4,85,30.21,10.0,ESE,6.9,-,N/A,,Mostly Cloudy,110,2012-11-14 05:58:00
11:58 PM,39.6,34.9,83,30.21,10.0,ESE,5.8,-,N/A,,Scattered Clouds,120,2012-11-14 06:58:00